This demonstration page uses our WeatherBlox Daily Observations layout. Learn more.

Left ArrowRight Arrow

40.92945, -100.16068

Hourly Observations for October 27, 2018

Temp ( °F °C ) Dew Point ( °F °C ) Humidity (%) Winds ( mph kmh ) Pressure ( in mb ) Visibility ( mi km ) Precip ( " mm )
12:15 am 00:15 Clear 45 7 35 1.7 69 69 W 6 9 29.97 1015 10 16.0934 0 0
12:35 am 00:35 Clear 40 4.4 34 1.2 80 80 WNW 6 9 30 1016 10 16.0934 0 0
12:55 am 00:55 Clear 40 4.7 35 1.7 81 81 NW 7 11 30 1016 10 16.0934 0 0
1:15 am 01:15 Clear 39 4 34 1.3 83 83 NNW 6 9 30 1016 10 16.0934 0 0
1:35 am 01:35 Clear 39 4 35 1.6 85 85 NNW 7 11 30 1016 10 16.0934 0 0
1:55 am 01:55 Clear 38 3.5 35 1.4 86 86 NW 7 11 30.03 1017 10 16.0934 0 0
2:15 am 02:15 Clear 39 3.7 34 1.3 85 85 NNW 6 9 30 1016 10 16.0934 0 0
2:35 am 02:35 Clear 37 3 34 1 87 87 NNW 6 9 30.03 1017 10 16.0934 0 0
2:55 am 02:55 Clear 38 3.2 34 1.2 87 87 NW 6 9 30 1016 10 16.0934 0 0
3:15 am 03:15 Clear 38 3.5 34 1.1 84 84 NW 5 7 30 1016 10 16.0934 0 0
3:35 am 03:35 Clear 39 3.7 34 1.2 84 84 NW 6 9 30 1016 10 16.0934 0 0
3:55 am 03:55 Clear 38 3.5 34 1.1 84 84 WNW 6 9 30.03 1017 10 16.0934 0 0
4:15 am 04:15 Clear 38 3.1 34 1.1 87 87 WNW 6 9 30.06 1018 10 16.0934 0 0
4:35 am 04:35 Clear 38 3.2 34 1.2 87 87 NW 6 9 30 1016 10 16.0934 0 0
4:55 am 04:55 Clear 38 3.3 34 1.1 86 86 WNW 6 9 30 1016 10 16.0934 0 0
5:15 am 05:15 Clear 38 3.3 34 1.1 86 86 Calm 30 1016 10 16.0934 0 0
5:35 am 05:35 Clear 39 3.7 34 1.2 84 84 W 5 7 30 1016 10 16.0934 0 0
5:55 am 05:55 Clear 38 3.3 34 1 85 85 W 6 9 30 1016 10 16.0934 0 0
6:15 am 06:15 Clear 38 3.3 34 1.1 86 86 W 3 6 30 1016 10 16.0934 0 0
6:35 am 06:35 Clear 37 2.9 34 1 87 87 WNW 5 7 30.03 1017 10 16.0934 0 0
6:55 am 06:55 Clear 37 2.8 34 0.9 87 87 WNW 6 9 30.03 1017 10 16.0934 0 0
7:15 am 07:15 Clear 37 2.5 33 0.7 88 88 WNW 5 7 30.03 1017 10 16.0934 0 0
7:35 am 07:35 Clear 37 2.7 33 0.7 87 87 WNW 3 6 30.03 1017 10 16.0934 0 0
7:55 am 07:55 Clear 37 2.8 34 0.9 87 87 WNW 7 11 30.03 1017 10 16.0934 0 0
8:15 am 08:15 Sunny 37 2.7 33 0.6 86 86 WNW 3 6 30.03 1017 10 16.0934 0 0
8:35 am 08:35 Sunny 37 3 34 1.1 87 87 WNW 5 7 30.03 1017 10 16.0934 0 0
8:55 am 08:55 Sunny 40 4.4 36 2.2 86 86 WNW 3 6 30.03 1017 10 16.0934 0 0
9:15 am 09:15 Sunny 42 5.5 37 3 84 84 W 3 6 30 1016 10 16.0934 0 0
9:35 am 09:35 Sunny 45 7.1 38 3.6 79 79 Calm 29.97 1015 10 16.0934 0 0
9:55 am 09:55 Sunny 46 7.9 40 4.3 78 78 Calm 29.97 1015 10 16.0934 0 0
10:15 am 10:15 Sunny 49 9.5 40 4.6 72 72 Calm 29.94 1014 10 16.0934 0 0
10:35 am 10:35 Sunny 52 11.2 42 5.4 68 68 Calm 29.94 1014 10 16.0934 0 0
10:55 am 10:55 Sunny 56 13.2 43 5.9 62 62 Calm 29.91 1013 10 16.0934 0 0
11:15 am 11:15 Sunny 59 15.1 43 6.3 56 56 Calm 29.91 1013 10 16.0934 0 0
11:35 am 11:35 Sunny 63 17.1 45 7.1 52 52 Calm 29.85 1011 10 16.0934 0 0
11:55 am 11:55 Sunny 67 19.5 43 5.9 41 41 W 6 9 29.83 1010 10 16.0934 0 0
12:15 pm 12:15 Sunny 69 20.7 40 4.5 35 35 WSW 12 19 29.83 1010 10 16.0934 0 0
12:35 pm 12:35 Sunny 71 21.6 39 4 32 32 WSW 12 19 29.83 1010 10 16.0934 0 0
12:55 pm 12:55 Sunny 72 22.4 40 4.5 31 31 W 14 22 29.83 1010 10 16.0934 0 0
1:15 pm 13:15 Sunny 73 22.5 39 4 30 30 W 13 20 29.77 1008 10 16.0934 0 0
1:35 pm 13:35 Sunny 73 22.9 40 4.2 30 30 W 13 20 29.77 1008 10 16.0934 0 0
1:55 pm 13:55 Sunny 74 23.1 39 4.1 29 29 W 12 19 29.74 1007 10 16.0934 0 0
2:15 pm 14:15 Sunny 74 23.5 39 4 28 28 WSW 13 20 29.74 1007 10 16.0934 0 0
2:35 pm 14:35 Sunny 75 24 40 4.2 28 28 W 10 17 29.71 1006 10 16.0934 0 0
2:55 pm 14:55 Sunny 76 24.5 40 4.3 27 27 W 14 22 29.71 1006 10 16.0934 0 0
3:15 pm 15:15 Sunny 76 24.5 40 4.4 27 27 WSW 9 15 29.71 1006 10 16.0934 0 0
3:35 pm 15:35 Sunny 77 25.1 39 4 26 26 W 16 26 29.65 1004 10 16.0934 0 0
3:55 pm 15:55 Sunny 78 25.3 39 4.1 25 25 W 14 22 29.65 1004 10 16.0934 0 0
4:15 pm 16:15 Sunny 78 25.5 38 3.5 24 24 WSW 16 26 29.65 1004 10 16.0934 0 0
4:35 pm 16:35 Sunny 77 25.2 38 3.2 24 24 WSW 13 20 29.65 1004 10 16.0934 0 0
4:55 pm 16:55 Sunny 77 25.2 38 3.3 24 24 WSW 15 24 29.65 1004 10 16.0934 0 0
5:15 pm 17:15 Sunny 77 25.1 38 3.6 25 25 WSW 13 20 29.65 1004 10 16.0934 0 0
5:35 pm 17:35 Partly Cloudy 77 25.1 39 4.1 26 26 W 8 13 29.65 1004 10 16.0934 0 0
5:55 pm 17:55 Mostly Cloudy 75 24.1 40 4.5 28 28 W 8 13 29.68 1005 10 16.0934 0 0
6:15 pm 18:15 Partly Cloudy 71 21.8 40 4.7 33 33 W 7 11 29.68 1005 10 16.0934 0 0
6:35 pm 18:35 Partly Cloudy 69 20.5 43 6 39 39 WNW 5 7 29.74 1007 10 16.0934 0 0
6:55 pm 18:55 Cloudy 66 19 44 6.6 45 45 NW 6 9 29.74 1007 10 16.0934 0 0
7:15 pm 19:15 Mostly Cloudy 68 19.8 42 5.5 39 39 NNW 17 28 29.77 1008 10 16.0934 0 0
7:35 pm 19:35 Partly Cloudy 65 18.1 44 6.6 47 47 N 30 48 29.85 1011 10 16.0934 0 0
7:55 pm 19:55 Cloudy 62 16.9 44 6.6 51 51 N 30 48 29.88 1012 10 16.0934 0 0
8:15 pm 20:15 Cloudy 61 16.3 44 6.6 53 53 N 23 37 29.88 1012 10 16.0934 0 0
8:35 pm 20:35 Cloudy 61 16.1 44 6.6 54 54 N 21 33 29.94 1014 10 16.0934 0 0
8:55 pm 20:55 Partly Cloudy 60 15.6 44 6.9 56 56 N 21 33 29.94 1014 10 16.0934 0 0
9:15 pm 21:15 Mostly Cloudy 60 15.3 45 7 58 58 N 15 24 29.94 1014 10 16.0934 0 0
9:35 pm 21:35 Partly Cloudy 58 14.2 44 6.5 60 60 N 12 19 29.97 1015 10 16.0934 0 0
9:55 pm 21:55 Clear 55 13 44 6.5 65 65 N 14 22 30 1016 10 16.0934 0 0
10:15 pm 22:15 Clear 55 13 44 6.5 65 65 N 13 20 30.03 1017 10 16.0934 0 0
10:35 pm 22:35 Clear 54 12.1 43 6.3 68 68 NNW 10 17 30.03 1017 10 16.0934 0 0
10:55 pm 22:55 Clear 54 12.1 43 6.1 67 67 NNW 10 17 30.03 1017 10 16.0934 0 0
11:15 pm 23:15 Clear 54 12.3 42 5.6 64 64 NNW 12 19 30.03 1017 10 16.0934 0 0
11:35 pm 23:35 Clear 52 11 42 5.6 70 70 N 9 15 30.03 1017 10 16.0934 0 0
11:55 pm 23:55 Partly Cloudy with Light Rain 53 11.6 42 5.8 68 68 NW 8 13 30.03 1017 10 16.0934 0 0

Powered by AerisWeather